SCP
0 0 0 0 0 0 0 0 0 0 0 0 0 0 0 0 0 0 0 0 0 0 0 0 0 0 0 0 0 0 0 0 0 0 0 0 1 1
0 0 0 0 0 0 0 0 0 0 0 0 0 0 0 0 0 0 0 0 0 0 0 0 0 0 0 0 0 0 0 0 0 0 0 0 0 1
0 0 0 0 0 0 0 0 0 0 0 0 0 0 0 0 0 0 0 0 0 0 0 0 0 0 0 0 0 0 0 0 0 0 0 0 0 1
0 0 0 0 0 0 0 0 0 0 0 0 0 0 0 0 0 0 0 0 0 0 0 0 0 0 0 0 0 0 0 0 0 0 0 0 0 0
0 0 0 0 0 0 0 0 0 0 0 0 0 0 0 0 0 0 0 0 0 0 0 0 0 0 0 0 0 0 0 0 0 0 0 0 0 0
0 0 0 0 0 0 0 0 0 0 0 0 0 0 0 0 0 0 0 0 0 0 0 0 0 0 0 0 0 0 0 0 0 0 0 0 0 0
0 0 0 0 0 0 0 0 0 0 0 0 0 0 0 0 0 0 0 0 0 0 0 0 0 0 0 0 0 0 0 0 0 0 0 0 0 0
0 0 0 0 0 0 0 0 0 0 0 0 0 0 0 0 0 0 0 0 0 0 0 0 0 0 0 0 0 0 0 0 0 0 0 0 0 0
0 0 0 0 0 0 0 0 0 0 0 0 0 0 0 0 0 0 0 0 0 0 0 0 0 0 0 0 0 0 0 0 0 0 0 0 0 0
0 0 0 0 0 0 0 0 0 0 0 0 0 0 0 0 0 0 0 0 0 0 0 0 0 0 0 0 0 0 0 0 0 0 0 0 0 0
0 0 0 0 0 0 0 0 0 0 0 0 0 0 0 0 0 0 0 0 0 0 0 0 0 0 0 0 0 0 0 0 0 0 0 0 0 0
0 0 0 0 0 0 0 0 0 0 0 0 0 0 0 0 0 0 0 0 0 0 0 0 0 0 0 0 0 0 0 0 0 0 0 0 0 0
0 0 0 0 0 0 0 0 0 0 0 0 0 0 0 0 0 0 0 0 0 0 0 0 0 0 0 0 0 0 0 0 0 0 0 0 0 0
0 0 0 0 0 0 0 0 0 0 0 0 0 0 0 0 0 0 0 0 0 0 0 0 0 0 0 0 0 0 0 0 0 0 0 0 0 0
0 0 0 0 0 0 0 0 0 0 0 0 0 0 0 0 0 0 0 0 0 0 0 0 0 0 0 0 0 0 0 0 0 0 0 0 0 0
0 0 0 0 0 0 0 0 0 0 0 0 0 0 0 0 0 0 0 0 0 0 0 0 0 0 0 0 0 0 0 0 0 0 0 0 0 0
0 0 0 0 0 0 0 0 0 0 0 0 0 0 0 0 0 0 0 0 0 0 0 0 0 0 0 0 0 0 0 0 0 0 0 0 0 0
0 0 0 0 0 0 0 0 0 0 0 0 0 0 0 0 0 0 0 0 0 0 0 0 0 0 0 0 0 0 0 0 0 0 0 0 0 0
0 0 0 0 0 0 0 0 0 0 0 0 0 0 0 0 0 0 0 0 0 0 0 0 0 0 0 0 0 0 0 0 0 0 0 0 0 0
0 0 0 0 0 0 0 0 0 0 0 0 0 0 0 0 0 0 0 0 0 0 0 0 0 0 0 0 0 0 0 0 0 0 0 0 0 0
0 0 0 0 0 0 0 0 0 0 0 0 0 0 0 0 0 0 0 0 0 0 0 0 0 0 0 0 0 0 0 0 0 0 0 0 0 0
0 0 0 0 0 0 0 0 0 0 0 0 0 0 0 0 0 0 0 0 0 0 0 0 0 0 0 0 0 0 0 0 0 0 0 0 0 0
0 0 0 0 0 0 0 0 0 0 0 0 0 0 0 0 0 0 0 0 0 0 0 0 0 0 0 0 0 0 0 0 0 0 0 0 0 0
Wind_Speed
4 4 3 2 2 2 2 3 2 2 2 2 1 1 2 2 3 3 3 5 7 8 9 8 8 8 8 9 9 10 9 8 8 9 9 9 9 8
3 4 3 2 2 2 2 2 2 2 2 1 2 2 2 2 3 3 3 5 5 7 8 8 7 7 8 8 9 9 9 8 9 9 10 9 9 9
4 4 4 3 2 2 2 2 2 2 2 2 2 2 3 3 2 3 3 3 3 5 7 8 8 7 7 8 8 8 9 8 9 9 10 10 10 10
5 5 4 3 3 3 2 3 2 2 3 3 3 2 3 3 3 3 3 3 3 5 6 7 7 7 7 7 8 8 9 8 8 9 10 10 11 11
5 5 5 5 4 3 3 3 2 2 2 3 3 2 2 2 3 3 3 3 3 4 5 6 7 7 7 7 8 8 8 8 9 9 10 10 11 11
4 4 5 5 5 4 3 3 3 3 3 3 3 3 2 2 3 3 3 3 3 3 4 4 6 7 7 7 7 7 8 8 9 9 10 11 11 12
4 4 3 4 4 4 3 4 4 3 3 3 3 3 3 2 3 2 3 4 4 3 3 3 4 4 4 5 6 7 8 8 9 9 10 11 11 11
4 4 3 4 4 5 5 5 5 4 4 3 3 4 4 4 3 3 3 4 3 2 4 4 4 4 4 4 6 8 8 9 9 9 10 11 11 11
4 4 3 3 4 4 4 5 5 5 5 4 4 5 4 4 4 4 4 5 5 4 4 5 4 5 4 4 7 8 9 9 9 9 10 11 11 12
4 4 4 4 4 4 4 4 4 4 5 4 4 4 4 3 4 4 4 5 5 4 4 5 4 5 5 4 6 7 9 9 10 10 11 11 11 12
3 4 4 4 5 6 4 4 4 3 3 4 4 4 4 5 4 3 3 4 4 3 2 4 4 5 5 5 4 6 8 9 10 10 11 11 12 11
3 3 5 5 6 6 4 4 5 4 3 3 4 4 4 4 5 5 4 4 4 3 2 3 3 4 4 3 3 4 5 7 9 10 10 10 11 7
3 3 3 5 5 5 4 3 4 3 3 4 3 3 3 3 3 3 4 4 4 4 2 2 3 4 4 5 4 4 4 5 5 6 8 9 10 8
3 3 3 5 5 5 4 4 4 3 2 2 3 2 2 2 2 3 4 4 5 5 5 4 4 4 5 6 5 5 5 5 5 5 5 8 8 10
2 4 4 4 5 4 4 4 4 2 2 2 3 3 2 2 2 3 3 3 5 5 5 5 5 5 5 6 6 6 6 5 5 5 5 6 6 6
2 3 4 3 3 2 2 2 2 2 2 2 2 2 2 2 2 2 3 3 3 3 3 4 5 6 6 7 7 7 6 5 5 5 6 6 6 6
2 2 2 2 2 2 2 1 2 2 2 2 2 2 2 2 2 2 2 3 3 4 4 3 4 5 7 7 7 7 6 6 6 6 6 7 6 6
3 2 2 2 2 2 2 2 2 2 2 2 3 3 3 3 3 3 3 3 4 4 4 4 3 3 4 5 7 7 6 6 6 6 6 7 7 6
3 3 3 3 3 3 3 3 3 3 2 3 3 3 3 3 3 3 3 4 4 4 4 3 3 3 5 5 4 5 6 6 6 6 6 6 8 7
2 2 2 2 2 3 3 3 3 3 3 3 3 3 3 3 4 4 4 4 5 5 4 4 4 4 5 6 5 5 7 7 6 7 6 7 7 9
2 2 2 2 2 3 3 3 3 3 3 3 4 4 4 4 4 4 4 6 5 5 5 5 4 5 4 4 5 6 5 7 8 7 7 7 7 7
2 2 2 2 3 3 3 3 3 4 4 4 4 4 4 4 5 5 5 5 5 5 6 5 4 4 4 5 7 7 7 6 8 11 11 10 6 6
3 3 3 3 3 3 3 4 5 4 4 4 4 4 4 5 5 5 5 6 6 6 6 5 4 4 5 5 6 7 8 8 6 6 6 8 12 15
Wind_Direction
188 184 187 183 182 193 203 206 207 224 239 216 225 256 300 314 325 314 320 340 336 339 343 340 342 342 342 341 339 338 335 333 327 321 310 310 303 303
182 180 182 180 175 187 198 217 238 239 238 235 253 260 289 297 308 303 310 319 326 333 336 336 332 335 336 333 334 334 331 327 326 319 309 306 305 300
181 182 184 181 179 183 189 204 219 225 232 254 260 255 270 282 292 296 300 300 313 328 327 329 327 326 326 328 327 328 327 323 323 325 320 314 310 302
186 185 186 180 186 189 192 200 211 226 227 239 252 251 260 278 290 295 298 297 300 321 320 321 324 320 319 320 324 326 328 325 322 321 323 321 319 313
190 190 191 186 189 193 194 199 204 213 222 223 240 253 258 268 282 291 292 290 293 303 305 310 311 312 312 315 319 322 324 321 320 319 320 318 318 318
193 194 197 197 196 194 197 200 198 200 203 211 225 240 251 263 275 285 294 294 293 294 293 299 303 300 301 307 313 317 317 313 313 315 316 317 315 317
188 193 198 201 209 210 207 200 197 200 202 209 220 232 239 248 262 279 287 296 292 286 296 294 296 293 291 293 299 310 312 307 306 308 311 312 314 314
186 188 191 196 202 211 216 218 215 206 207 213 227 233 242 252 264 269 278 285 284 293 298 293 290 290 295 291 302 305 307 305 306 306 307 309 311 311
191 191 192 197 203 200 203 211 221 228 229 232 234 240 246 249 257 262 266 274 283 299 295 285 286 289 298 299 296 299 306 307 308 308 307 308 309 310
194 196 195 200 206 202 200 210 220 225 228 233 238 248 255 255 249 259 270 276 280 274 275 276 286 293 300 293 296 297 303 304 305 307 308 307 308 307
193 199 200 205 206 207 207 210 219 229 232 238 252 257 258 252 253 254 254 261 273 273 271 273 288 302 295 286 290 295 298 301 303 306 308 309 310 309
187 195 206 210 211 216 217 213 220 227 223 227 236 240 245 246 245 247 249 253 266 270 258 273 285 302 292 283 297 304 293 293 299 304 308 309 312 307
194 200 203 207 217 225 228 224 230 234 224 227 234 234 235 239 240 245 254 256 258 261 269 275 276 278 276 289 294 294 298 301 298 295 297 304 308 307
202 203 202 208 225 229 226 225 229 223 226 228 236 244 247 247 253 257 258 260 263 268 272 269 266 272 278 282 285 294 296 296 296 296 296 299 299 300
205 200 204 212 223 226 222 228 225 218 222 237 246 250 256 263 265 264 263 262 265 263 261 260 263 267 268 271 281 289 298 296 291 295 300 299 297 299
200 194 202 209 216 216 213 222 224 229 235 244 254 264 266 261 262 268 272 273 270 269 255 257 261 262 263 266 271 277 282 283 289 294 297 296 295 292
180 190 201 209 217 215 212 217 220 219 228 239 247 253 259 262 265 266 266 268 262 269 278 277 270 266 263 265 268 268 274 277 283 292 295 294 293 293
194 205 210 215 219 223 223 223 226 231 235 240 244 247 253 257 264 261 256 256 263 270 276 281 284 281 270 254 242 263 272 279 287 289 287 288 291 294
209 211 215 216 217 220 228 234 238 240 241 240 243 246 250 253 257 259 256 257 263 268 271 272 269 267 276 283 271 233 265 282 287 286 284 283 287 293
221 221 218 220 223 226 232 240 244 243 239 242 243 244 245 248 251 257 258 257 264 269 271 264 256 258 264 279 288 281 264 270 278 284 289 291 286 288
229 232 232 235 238 240 242 243 243 243 244 245 246 246 245 247 252 255 260 262 261 262 264 267 266 277 277 271 270 272 274 263 269 275 286 290 292 292
240 241 242 245 247 246 246 246 247 246 243 242 246 246 246 246 250 254 257 261 259 260 265 271 272 265 253 255 268 280 286 290 280 273 266 265 277 285
249 249 249 247 246 246 245 245 247 250 249 249 248 246 245 246 249 252 254 256 260 262 265 269 265 256 256 261 270 277 283 289 290 290 280 277 275 275